Regional Weather Roundup
Issued by NWS Green Bay, WI

Home | Current Version | Previous Version | Graphics & Text | Print | Product List | Glossary Off
Versions: 1 2 3 4 5 6 7 8 9 10 11 12 13 14 15 16 17 18 19 20 21 22 23 24 25 26 27 28 29 30 31 32 33 34 35 36 37 38 39 40 41 42 43 44 45 46 47 48 49 50

633
ASUS43 KGRB 231300
RWRGRB

NORTH-CENTRAL AND NORTHEAST WISCONSIN REGIONAL WEATHER ROUNDUP
NATIONAL WEATHER SERVICE GREEN BAY WI
800 AM CDT SUN APR 23 2017

WIZ005-009-010>012-018-019-231400-
NORTH CENTRAL WISCONSIN

CITY           SKY/WX    TMP DP  RH WIND       PRES   REMARKS
IRONWOOD       FLURRIES  34  33  96 NE7       30.19R
MANITOWISH WTR NOT AVBL
ARBOR VITAE    NOT AVBL
EAGLE RIVER    NOT AVBL
LAND O LAKES   NOT AVBL
RHINELANDER    CLOUDY    45  39  79 N8        30.10R
PHILLIPS       CLOUDY    40  39  95 NE10G17   30.11R
ANTIGO         NOT AVBL
TOMAHAWK       NOT AVBL
MERRILL        NOT AVBL
$$

WIZ013-073-231400-
NORTHEAST WISCONSIN

CITY           SKY/WX    TMP DP  RH WIND       PRES   REMARKS
IRON MOUNTAIN  CLOUDY    38  30  73 N13       30.12R
MARINETTE      CLOUDY    44  38  79 NE14      30.12R
$$

WIZ017-030-035>037-045-231400-
CENTRAL WISCONSIN

CITY           SKY/WX    TMP DP  RH WIND       PRES   REMARKS
MEDFORD        NOT AVBL
WAUSAU         MOSUNNY   50  36  58 NW3       30.06R
MOSINEE        MOSUNNY   50  36  57 W5        30.09R
MARSHFIELD     SUNNY     50  36  58 W7        30.07R
WISC RAPIDS    SUNNY     51  35  54 SW6       30.09R
STEVENS POINT  NOT AVBL
WAUPACA        NOT AVBL
SHAWANO        NOT AVBL
CLINTONVILLE   NOT AVBL
WAUTOMA        SUNNY     46  36  68 CALM      30.09S
$$

WIZ038-039-048-051-231400-
FOX VALLEY

CITY           SKY/WX    TMP DP  RH WIND       PRES   REMARKS
NWS GREEN BAY  SUNNY     51  39  63 S5        30.07R
APPLETON       PTSUNNY   52  28  40 SW12      30.07R
OSHKOSH        SUNNY     52  34  50 SW6       30.08S
FOND DU LAC    SUNNY     50  33  52 SW7       30.10S
$$

WIZ022-050-052-231400-
EAST CENTRAL WISCONSIN

CITY           SKY/WX    TMP DP  RH WIND       PRES   REMARKS
EPHRAIM        NOT AVBL
WASHINGTON ISL CLOUDY    38  34  84 N14       30.12R
STURGEON BAY   MOSUNNY   47  37  68 NE10      30.12R
MANITOWOC      NOT AVBL
SHEBOYGAN      SUNNY     51  36  56 SW7       30.10S HAZE
$$

LMZ563-521-522-541>543-231400-
LAKESHORE

STATION/POSITION TIME  TEMP    WIND        PRES    VSBY  WAVE
                       AIR SEA DIR/SP/G                  HT/PER
                 (UTC) (F)     (DEG/KT/KT) (MB)    (MI)  (FT/S)
SHEBOYGAN LKSHOR 1200   48     250/ 11/ 13 1019.1R
KEWAUNEE LKSHORE 1230   53     250/  7/ 11 1017.6R
NORTHPORT PIER   1240   39     350/ 12/ 16 1020.0R
N MID LAKE BUOY  1150   39 37  350/  8/ 10 1020.0R         1/ 4
SISTER BAY LKSHO 1151   43      20/ 14/ 18   N/A
CHAMBERS ISLAND  1230   40     360/ 16/ 19 1019.3R
MENOMINEE LKSHOR 1230   41      30/ 17/ 21 1018.7R
$$




USA.gov is the U.S. government's official web portal to all federal, state and local government web resources and services.